GFSFLT2_prec_precacc_129.txt.gz
Total_Precipitation_Accumulation
5.26 7.51 5.14 4.03 4.24 3.28 3.33 2.37 2.15 1.89 1.39 0.82 0.43 0.40 0.55 0.31 0.20 0.17 0.13 0.12 0.17 0.25 0.19 0.15 0.08 0.03 0.01 0.01 0.04 0.01 0.05 0.14
6.73 6.72 5.23 3.51 3.42 3.97 3.24 3.43 2.81 2.04 1.61 1.32 0.46 0.47 0.38 0.37 0.22 0.18 0.10 0.07 0.10 0.12 0.21 0.24 0.26 0.18 0.03 0.00 0.04 0.01 0.01 0.07
5.84 7.31 6.11 3.64 2.51 3.42 2.96 3.65 3.19 2.04 1.58 2.07 0.81 0.39 0.38 0.30 0.14 0.12 0.13 0.07 0.07 0.15 0.37 0.32 0.28 0.24 0.12 0.00 0.03 0.01 0.00 0.01
3.33 5.34 6.93 4.40 2.98 2.10 2.21 2.95 4.64 2.34 1.57 1.78 1.44 0.56 0.45 0.28 0.19 0.19 0.20 0.16 0.21 0.49 0.55 0.40 0.20 0.11 0.09 0.01 0.01 0.01 0.00 0.00
1.47 2.49 4.22 3.72 3.11 2.58 2.23 2.41 4.16 3.48 1.68 1.24 1.56 0.67 0.66 0.48 0.41 0.44 0.42 0.38 0.45 0.47 0.57 0.58 0.45 0.23 0.13 0.09 0.04 0.01 0.00 0.00
1.12 0.87 1.90 1.99 1.77 2.09 1.98 1.37 2.00 3.75 1.89 1.44 1.18 1.18 0.71 0.47 0.28 0.32 0.29 0.24 0.27 0.25 0.44 0.47 0.35 0.33 0.29 0.16 0.08 0.04 0.01 0.01
1.07 0.80 0.97 1.54 1.67 1.75 1.47 0.80 1.10 2.59 2.23 1.63 1.00 1.19 0.97 0.66 0.47 0.24 0.17 0.20 0.23 0.13 0.14 0.19 0.18 0.21 0.16 0.12 0.07 0.06 0.03 0.01
0.60 0.77 0.65 0.94 1.51 1.21 1.32 0.84 0.87 1.85 2.32 1.67 1.11 0.82 0.82 0.45 0.35 0.35 0.40 0.36 0.24 0.19 0.19 0.15 0.21 0.42 0.33 0.15 0.06 0.05 0.03 0.03
0.46 0.50 0.63 1.03 1.29 1.04 0.99 0.84 0.66 1.11 1.95 1.68 1.65 0.94 0.71 0.47 0.32 0.27 0.28 0.35 0.49 0.49 0.41 0.27 0.20 0.24 0.48 0.26 0.16 0.09 0.06 0.05
0.31 0.54 0.83 0.94 1.07 0.97 1.01 0.82 0.68 1.01 1.54 1.54 1.59 1.50 0.59 0.51 0.36 0.21 0.20 0.35 0.57 0.71 0.53 0.23 0.22 0.19 0.24 0.12 0.03 0.04 0.04 0.03
0.51 0.81 1.18 1.39 1.24 1.16 1.56 1.36 1.08 0.99 1.37 1.39 1.07 1.56 0.88 0.37 0.37 0.28 0.26 0.18 0.25 0.54 0.62 0.42 0.27 0.17 0.18 0.13 0.03 0.01 0.02 0.03
0.68 1.07 1.34 1.40 2.09 1.91 1.69 1.03 0.87 0.84 1.13 1.14 0.99 1.16 1.28 0.79 0.53 0.40 0.35 0.38 0.28 0.24 0.32 0.29 0.34 0.30 0.22 0.14 0.05 0.02 0.02 0.03
0.81 1.22 1.52 1.15 0.78 0.59 0.86 0.81 0.76 0.86 0.92 0.90 0.74 0.88 0.88 1.11 0.67 0.39 0.30 0.39 0.37 0.32 0.25 0.15 0.16 0.26 0.38 0.24 0.13 0.02 0.01 0.04
0.41 0.37 0.54 0.22 0.15 0.23 0.52 0.61 0.67 0.70 0.87 0.72 0.67 0.83 0.69 0.79 0.77 0.62 0.25 0.28 0.36 0.40 0.42 0.24 0.12 0.22 0.27 0.16 0.11 0.10 0.03 0.01
0.06 0.06 0.27 0.22 0.10 0.16 0.41 0.69 0.79 0.93 1.25 1.08 0.68 0.79 0.79 0.70 0.68 0.72 0.43 0.31 0.38 0.30 0.34 0.23 0.13 0.13 0.16 0.08 0.05 0.05 0.03 0.01
0.02 0.07 0.13 0.18 0.20 0.24 0.32 0.64 0.68 0.78 0.81 1.03 0.71 0.60 0.63 0.54 0.49 0.72 0.64 0.41 0.34 0.31 0.29 0.21 0.11 0.10 0.12 0.05 0.03 0.05 0.07 0.06
0.10 0.13 0.15 0.12 0.18 0.32 0.22 0.32 0.46 0.65 0.82 1.12 1.25 0.87 0.61 0.56 0.49 0.63 0.69 0.52 0.49 0.35 0.35 0.38 0.23 0.11 0.07 0.06 0.03 0.02 0.03 0.08
0.16 0.13 0.14 0.16 0.22 0.27 0.29 0.21 0.18 0.26 0.52 0.81 1.41 1.44 0.90 0.57 0.52 0.59 0.67 0.66 0.56 0.52 0.54 0.42 0.39 0.29 0.18 0.14 0.09 0.10 0.10 0.16
0.16 0.13 0.13 0.17 0.21 0.27 0.24 0.21 0.12 0.12 0.14 0.30 0.63 1.45 1.41 0.80 0.45 0.46 0.66 0.76 0.71 0.63 0.75 0.76 0.55 0.56 0.45 0.44 0.45 0.44 0.45 0.50
0.10 0.05 0.05 0.07 0.10 0.22 0.18 0.16 0.15 0.13 0.14 0.21 0.26 0.47 1.02 1.02 0.72 0.42 0.56 0.84 0.86 0.90 0.97 1.12 1.23 1.36 1.42 1.22 0.96 0.75 0.63 0.53

GFSFLT2_prec_precacc_132.txt.gz
Total_Precipitation_Accumulation
5.26 7.51 5.14 4.03 4.24 3.28 3.33 2.37 2.15 1.89 1.39 0.82 0.43 0.40 0.55 0.31 0.20 0.17 0.13 0.12 0.17 0.25 0.19 0.15 0.08 0.03 0.01 0.01 0.10 0.02 0.06 0.16
6.73 6.72 5.23 3.51 3.42 3.97 3.24 3.43 2.81 2.04 1.61 1.32 0.46 0.47 0.38 0.37 0.22 0.18 0.10 0.07 0.10 0.12 0.21 0.24 0.26 0.22 0.06 0.02 0.09 0.06 0.03 0.07
5.84 7.31 6.11 3.64 2.51 3.42 2.96 3.65 3.19 2.04 1.58 2.07 0.81 0.39 0.38 0.30 0.14 0.12 0.13 0.07 0.07 0.15 0.37 0.32 0.28 0.25 0.14 0.04 0.07 0.06 0.06 0.01
3.33 5.34 6.93 4.40 2.98 2.10 2.21 2.95 4.64 2.34 1.57 1.78 1.44 0.56 0.45 0.28 0.19 0.19 0.20 0.16 0.21 0.49 0.55 0.40 0.20 0.11 0.09 0.07 0.05 0.01 0.03 0.00
1.47 2.49 4.22 3.72 3.11 2.58 2.23 2.41 4.16 3.48 1.68 1.24 1.56 0.67 0.66 0.48 0.41 0.44 0.42 0.38 0.45 0.47 0.57 0.58 0.45 0.23 0.14 0.17 0.07 0.01 0.01 0.00
1.12 0.87 1.90 1.99 1.77 2.09 1.98 1.37 2.00 3.75 1.89 1.44 1.18 1.18 0.71 0.47 0.28 0.32 0.29 0.24 0.27 0.25 0.44 0.47 0.35 0.33 0.29 0.16 0.09 0.04 0.01 0.01
1.07 0.80 0.97 1.54 1.67 1.75 1.47 0.80 1.10 2.59 2.23 1.63 1.00 1.19 0.97 0.66 0.47 0.24 0.18 0.20 0.23 0.13 0.14 0.19 0.18 0.21 0.16 0.13 0.08 0.06 0.03 0.01
0.60 0.77 0.65 0.94 1.51 1.21 1.32 0.84 0.87 1.85 2.32 1.67 1.11 0.82 0.82 0.45 0.35 0.35 0.40 0.36 0.24 0.19 0.19 0.16 0.29 0.52 0.49 0.30 0.11 0.05 0.03 0.03
0.46 0.50 0.63 1.03 1.29 1.04 0.99 0.84 0.66 1.11 1.95 1.68 1.65 0.94 0.71 0.47 0.32 0.27 0.28 0.35 0.49 0.50 0.42 0.27 0.22 0.27 0.53 0.33 0.19 0.09 0.06 0.05
0.31 0.54 0.83 0.94 1.07 0.97 1.01 0.82 0.68 1.01 1.54 1.54 1.59 1.50 0.59 0.51 0.36 0.21 0.20 0.39 0.60 0.72 0.54 0.24 0.22 0.19 0.25 0.14 0.03 0.04 0.04 0.03
0.51 0.82 1.19 1.41 1.29 1.19 1.58 1.37 1.08 0.99 1.37 1.39 1.07 1.56 0.88 0.38 0.37 0.28 0.26 0.22 0.32 0.55 0.62 0.43 0.28 0.17 0.20 0.16 0.05 0.02 0.02 0.03
0.68 1.07 1.36 1.46 2.14 1.95 1.72 1.05 0.88 0.84 1.13 1.14 0.99 1.17 1.30 0.81 0.54 0.41 0.36 0.40 0.36 0.28 0.32 0.29 0.36 0.32 0.29 0.29 0.11 0.03 0.02 0.03
0.81 1.22 1.53 1.21 0.82 0.63 0.89 0.83 0.78 0.87 0.93 0.90 0.74 0.90 0.98 1.24 0.80 0.48 0.32 0.43 0.47 0.39 0.25 0.16 0.17 0.26 0.42 0.36 0.23 0.07 0.02 0.04
0.41 0.37 0.54 0.22 0.15 0.24 0.54 0.61 0.68 0.70 0.87 0.72 0.68 0.84 0.75 0.89 0.87 0.73 0.32 0.32 0.39 0.43 0.43 0.25 0.13 0.22 0.27 0.18 0.17 0.21 0.08 0.01
0.06 0.06 0.27 0.22 0.10 0.16 0.41 0.69 0.79 0.93 1.25 1.08 0.69 0.80 0.82 0.76 0.78 0.81 0.47 0.34 0.40 0.33 0.35 0.24 0.14 0.14 0.16 0.09 0.06 0.10 0.05 0.02
0.02 0.07 0.13 0.18 0.20 0.24 0.32 0.64 0.68 0.78 0.81 1.03 0.73 0.64 0.67 0.59 0.55 0.79 0.72 0.47 0.39 0.36 0.31 0.22 0.13 0.11 0.13 0.05 0.03 0.05 0.07 0.06
0.10 0.13 0.15 0.12 0.18 0.32 0.23 0.32 0.46 0.65 0.82 1.13 1.26 0.89 0.63 0.59 0.54 0.70 0.75 0.58 0.55 0.40 0.38 0.39 0.24 0.12 0.08 0.07 0.03 0.02 0.03 0.08
0.16 0.13 0.14 0.16 0.22 0.27 0.29 0.21 0.19 0.26 0.52 0.83 1.45 1.46 0.92 0.59 0.56 0.64 0.74 0.73 0.63 0.58 0.57 0.43 0.40 0.30 0.20 0.15 0.09 0.11 0.10 0.16
0.16 0.13 0.13 0.17 0.21 0.27 0.24 0.21 0.13 0.14 0.18 0.32 0.66 1.47 1.42 0.82 0.47 0.49 0.73 0.85 0.77 0.69 0.78 0.77 0.56 0.58 0.47 0.46 0.48 0.46 0.45 0.50
0.10 0.05 0.05 0.07 0.10 0.22 0.18 0.16 0.15 0.14 0.16 0.23 0.28 0.48 1.03 1.03 0.74 0.43 0.60 0.96 0.94 0.94 0.99 1.13 1.23 1.37 1.44 1.25 1.07 0.85 0.67 0.54

GFSFLT2_prec_precacc_135.txt.gz
Total_Precipitation_Accumulation
5.26 7.51 5.14 4.03 4.24 3.28 3.33 2.37 2.15 1.89 1.39 0.82 0.43 0.40 0.55 0.31 0.20 0.17 0.13 0.12 0.17 0.25 0.19 0.15 0.08 0.03 0.01 0.02 0.11 0.02 0.06 0.16
6.73 6.72 5.23 3.51 3.42 3.97 3.24 3.43 2.81 2.04 1.61 1.32 0.46 0.47 0.38 0.37 0.22 0.18 0.10 0.07 0.10 0.12 0.21 0.24 0.26 0.22 0.06 0.03 0.09 0.08 0.04 0.07
5.84 7.31 6.11 3.64 2.51 3.42 2.96 3.65 3.19 2.04 1.58 2.07 0.81 0.39 0.38 0.30 0.14 0.12 0.13 0.07 0.07 0.15 0.37 0.32 0.28 0.25 0.14 0.04 0.07 0.06 0.07 0.02
3.33 5.34 6.93 4.40 2.98 2.10 2.21 2.95 4.64 2.34 1.57 1.78 1.44 0.56 0.45 0.28 0.19 0.19 0.20 0.16 0.21 0.49 0.55 0.40 0.20 0.12 0.09 0.08 0.05 0.01 0.03 0.01
1.47 2.49 4.22 3.72 3.11 2.58 2.23 2.41 4.16 3.48 1.68 1.24 1.56 0.67 0.66 0.48 0.41 0.44 0.42 0.38 0.45 0.47 0.57 0.58 0.45 0.23 0.15 0.22 0.08 0.02 0.01 0.00
1.12 0.87 1.90 1.99 1.77 2.09 1.98 1.37 2.00 3.75 1.89 1.44 1.18 1.18 0.71 0.47 0.28 0.32 0.29 0.24 0.27 0.25 0.44 0.47 0.35 0.33 0.29 0.17 0.10 0.06 0.04 0.09
1.07 0.80 0.97 1.54 1.67 1.75 1.47 0.80 1.10 2.59 2.23 1.63 1.00 1.19 0.97 0.66 0.47 0.24 0.18 0.20 0.23 0.13 0.14 0.19 0.18 0.22 0.20 0.14 0.09 0.07 0.05 0.07
0.60 0.77 0.65 0.94 1.51 1.21 1.32 0.84 0.87 1.85 2.32 1.67 1.11 0.82 0.82 0.45 0.35 0.35 0.40 0.36 0.24 0.19 0.19 0.16 0.29 0.53 0.55 0.36 0.15 0.06 0.06 0.05
0.46 0.50 0.63 1.03 1.29 1.04 0.99 0.84 0.66 1.11 1.95 1.68 1.66 0.94 0.72 0.47 0.32 0.27 0.28 0.35 0.49 0.50 0.42 0.28 0.22 0.27 0.55 0.37 0.20 0.10 0.09 0.07
0.31 0.54 0.83 0.94 1.07 0.97 1.01 0.82 0.68 1.01 1.54 1.54 1.59 1.50 0.60 0.51 0.36 0.21 0.20 0.39 0.61 0.72 0.54 0.24 0.22 0.19 0.25 0.15 0.04 0.05 0.05 0.05
0.51 0.82 1.19 1.41 1.29 1.19 1.58 1.37 1.08 0.99 1.37 1.39 1.07 1.56 0.88 0.38 0.37 0.28 0.26 0.22 0.34 0.57 0.63 0.45 0.29 0.17 0.20 0.17 0.06 0.02 0.05 0.05
0.68 1.07 1.36 1.46 2.16 2.03 1.81 1.12 0.91 0.85 1.13 1.14 0.99 1.17 1.30 0.81 0.55 0.41 0.36 0.40 0.37 0.32 0.39 0.34 0.38 0.32 0.29 0.29 0.14 0.06 0.07 0.07
0.81 1.22 1.53 1.22 0.84 0.67 0.93 0.85 0.79 0.89 0.97 0.91 0.75 0.90 0.99 1.25 0.83 0.53 0.39 0.44 0.49 0.50 0.33 0.20 0.17 0.27 0.43 0.37 0.24 0.08 0.06 0.09
0.41 0.37 0.54 0.23 0.16 0.25 0.55 0.62 0.68 0.71 0.92 0.73 0.68 0.85 0.75 0.89 0.89 0.81 0.47 0.52 0.50 0.50 0.45 0.26 0.13 0.22 0.27 0.18 0.19 0.23 0.10 0.03
0.06 0.06 0.27 0.23 0.12 0.20 0.43 0.69 0.79 0.93 1.25 1.09 0.70 0.81 0.88 0.78 0.79 0.86 0.62 0.54 0.56 0.42 0.38 0.26 0.16 0.16 0.16 0.09 0.07 0.13 0.08 0.05
0.02 0.07 0.13 0.18 0.20 0.25 0.33 0.64 0.68 0.78 0.81 1.03 0.75 0.67 0.75 0.65 0.60 0.82 0.75 0.53 0.47 0.40 0.35 0.27 0.16 0.13 0.14 0.06 0.03 0.05 0.07 0.07
0.10 0.13 0.15 0.12 0.18 0.32 0.23 0.33 0.46 0.65 0.82 1.14 1.27 0.90 0.66 0.62 0.57 0.73 0.78 0.60 0.59 0.49 0.46 0.46 0.26 0.15 0.09 0.07 0.04 0.02 0.03 0.08
0.16 0.13 0.14 0.16 0.22 0.27 0.29 0.21 0.19 0.26 0.52 0.84 1.48 1.49 0.95 0.63 0.60 0.67 0.77 0.77 0.66 0.65 0.67 0.52 0.46 0.33 0.21 0.16 0.10 0.11 0.10 0.16
0.16 0.13 0.13 0.17 0.21 0.27 0.24 0.21 0.13 0.14 0.18 0.33 0.69 1.52 1.46 0.90 0.54 0.54 0.75 0.87 0.80 0.77 0.83 0.81 0.61 0.61 0.48 0.47 0.49 0.47 0.46 0.50
0.11 0.05 0.05 0.07 0.10 0.22 0.18 0.16 0.15 0.14 0.16 0.23 0.29 0.50 1.05 1.09 0.81 0.50 0.64 0.98 0.99 1.00 1.06 1.17 1.27 1.40 1.45 1.26 1.08 0.87 0.69 0.56

GFSFLT2_prec_precacc_138.txt.gz
Total_Precipitation_Accumulation
5.26 7.51 5.14 4.03 4.24 3.28 3.33 2.37 2.15 1.89 1.39 0.82 0.43 0.40 0.55 0.31 0.20 0.17 0.13 0.12 0.17 0.25 0.19 0.15 0.08 0.05 0.06 0.05 0.13 0.03 0.06 0.16
6.73 6.72 5.23 3.51 3.42 3.97 3.24 3.43 2.81 2.04 1.61 1.32 0.46 0.47 0.38 0.37 0.22 0.18 0.10 0.07 0.10 0.12 0.21 0.24 0.26 0.24 0.07 0.03 0.14 0.16 0.06 0.08
5.84 7.31 6.11 3.64 2.51 3.42 2.96 3.65 3.19 2.04 1.58 2.07 0.81 0.39 0.38 0.30 0.14 0.12 0.13 0.07 0.07 0.15 0.37 0.33 0.29 0.25 0.15 0.06 0.09 0.10 0.10 0.03
3.33 5.34 6.93 4.40 2.98 2.10 2.21 2.95 4.64 2.34 1.57 1.78 1.44 0.56 0.45 0.28 0.19 0.19 0.20 0.16 0.21 0.49 0.55 0.41 0.23 0.13 0.09 0.08 0.05 0.02 0.04 0.01
1.47 2.49 4.22 3.72 3.11 2.58 2.23 2.41 4.16 3.48 1.68 1.24 1.56 0.67 0.66 0.48 0.41 0.44 0.42 0.38 0.45 0.47 0.57 0.58 0.47 0.25 0.21 0.27 0.09 0.02 0.03 0.05
1.12 0.87 1.90 1.99 1.77 2.09 1.98 1.37 2.00 3.75 1.89 1.44 1.18 1.18 0.71 0.47 0.28 0.32 0.29 0.24 0.27 0.25 0.44 0.47 0.38 0.33 0.31 0.18 0.11 0.06 0.06 0.21
1.07 0.80 0.97 1.54 1.67 1.75 1.47 0.80 1.11 2.59 2.23 1.63 1.00 1.20 0.97 0.66 0.47 0.24 0.18 0.20 0.23 0.13 0.14 0.19 0.19 0.22 0.20 0.14 0.09 0.07 0.06 0.14
0.60 0.77 0.65 0.94 1.51 1.21 1.32 0.84 0.87 1.85 2.32 1.67 1.11 0.82 0.82 0.45 0.35 0.35 0.40 0.36 0.24 0.19 0.19 0.16 0.30 0.53 0.55 0.36 0.15 0.06 0.06 0.08
0.46 0.50 0.63 1.03 1.29 1.04 0.99 0.84 0.66 1.11 1.95 1.68 1.66 0.94 0.72 0.47 0.32 0.27 0.28 0.35 0.49 0.50 0.43 0.28 0.22 0.27 0.55 0.37 0.20 0.10 0.09 0.09
0.31 0.54 0.83 0.94 1.07 0.97 1.01 0.82 0.68 1.01 1.54 1.54 1.59 1.50 0.60 0.51 0.36 0.21 0.20 0.39 0.61 0.72 0.54 0.25 0.22 0.19 0.25 0.15 0.04 0.05 0.06 0.06
0.51 0.82 1.19 1.41 1.29 1.19 1.58 1.37 1.08 0.99 1.37 1.39 1.07 1.56 0.88 0.38 0.38 0.28 0.26 0.22 0.34 0.57 0.63 0.49 0.32 0.18 0.20 0.17 0.06 0.03 0.05 0.07
0.68 1.07 1.36 1.46 2.16 2.03 1.81 1.12 0.92 0.86 1.14 1.15 0.99 1.17 1.30 0.82 0.55 0.41 0.36 0.40 0.37 0.33 0.40 0.39 0.44 0.34 0.29 0.29 0.14 0.09 0.10 0.10
0.81 1.22 1.53 1.22 0.84 0.67 0.93 0.85 0.79 0.90 1.00 0.96 0.77 0.91 0.99 1.25 0.83 0.54 0.39 0.45 0.49 0.53 0.38 0.23 0.21 0.29 0.43 0.37 0.25 0.09 0.08 0.12
0.41 0.37 0.54 0.23 0.16 0.25 0.56 0.64 0.73 0.80 1.01 0.80 0.69 0.86 0.75 0.90 0.90 0.81 0.48 0.54 0.53 0.61 0.63 0.38 0.16 0.24 0.27 0.18 0.21 0.24 0.10 0.03
0.06 0.06 0.27 0.23 0.13 0.23 0.48 0.81 0.92 1.05 1.33 1.13 0.77 0.88 0.92 0.80 0.79 0.87 0.63 0.58 0.65 0.61 0.59 0.38 0.20 0.18 0.16 0.09 0.07 0.13 0.08 0.05
0.02 0.07 0.14 0.20 0.26 0.32 0.39 0.66 0.72 0.83 0.88 1.12 0.89 0.76 0.80 0.69 0.62 0.85 0.77 0.56 0.51 0.50 0.52 0.40 0.22 0.15 0.15 0.06 0.03 0.05 0.07 0.07
0.10 0.13 0.16 0.15 0.22 0.38 0.30 0.36 0.47 0.66 0.83 1.15 1.31 0.94 0.71 0.66 0.62 0.75 0.79 0.62 0.61 0.52 0.53 0.52 0.31 0.16 0.09 0.09 0.04 0.02 0.03 0.08
0.16 0.13 0.15 0.17 0.24 0.31 0.31 0.23 0.20 0.27 0.52 0.84 1.50 1.52 0.96 0.64 0.62 0.69 0.79 0.78 0.67 0.69 0.75 0.60 0.60 0.43 0.23 0.16 0.11 0.11 0.10 0.16
0.17 0.15 0.13 0.17 0.21 0.28 0.25 0.21 0.13 0.15 0.18 0.33 0.71 1.54 1.47 0.92 0.59 0.57 0.78 0.91 0.84 0.78 0.86 0.85 0.69 0.73 0.55 0.52 0.50 0.47 0.46 0.50
0.18 0.10 0.07 0.08 0.12 0.23 0.19 0.16 0.15 0.14 0.16 0.23 0.29 0.50 1.08 1.12 0.86 0.55 0.70 1.04 1.04 1.04 1.08 1.19 1.29 1.46 1.50 1.30 1.09 0.87 0.70 0.56

GFSFLT2_prec_precacc_144.txt.gz
Total_Precipitation_Accumulation
5.26 7.51 5.14 4.03 4.24 3.28 3.33 2.37 2.15 1.89 1.39 0.82 0.43 0.40 0.55 0.31 0.20 0.17 0.13 0.12 0.17 0.25 0.19 0.15 0.08 0.06 0.07 0.05 0.13 0.04 0.08 0.18
6.73 6.72 5.23 3.51 3.42 3.97 3.24 3.43 2.81 2.04 1.61 1.32 0.46 0.47 0.38 0.37 0.22 0.18 0.10 0.07 0.10 0.12 0.21 0.24 0.28 0.26 0.08 0.08 0.21 0.17 0.07 0.11
5.84 7.31 6.11 3.64 2.51 3.42 2.96 3.65 3.19 2.04 1.58 2.07 0.81 0.39 0.38 0.30 0.14 0.12 0.13 0.07 0.07 0.15 0.37 0.33 0.29 0.26 0.18 0.20 0.21 0.12 0.10 0.05
3.33 5.34 6.93 4.40 2.98 2.10 2.21 2.95 4.64 2.34 1.57 1.78 1.44 0.56 0.45 0.28 0.19 0.19 0.20 0.16 0.21 0.49 0.55 0.41 0.23 0.13 0.14 0.23 0.12 0.04 0.07 0.03
1.47 2.49 4.22 3.72 3.11 2.58 2.23 2.41 4.16 3.48 1.68 1.24 1.56 0.67 0.67 0.48 0.41 0.44 0.42 0.38 0.45 0.47 0.57 0.58 0.47 0.25 0.22 0.30 0.12 0.04 0.06 0.06
1.12 0.87 1.90 1.99 1.77 2.09 1.98 1.37 2.00 3.75 1.89 1.44 1.19 1.18 0.72 0.47 0.28 0.32 0.29 0.24 0.27 0.25 0.44 0.47 0.38 0.33 0.31 0.18 0.11 0.07 0.10 0.23
1.07 0.80 0.97 1.54 1.67 1.75 1.47 0.80 1.11 2.59 2.23 1.63 1.00 1.20 0.97 0.66 0.47 0.24 0.18 0.20 0.23 0.13 0.14 0.19 0.19 0.22 0.20 0.14 0.09 0.07 0.07 0.15
0.60 0.77 0.65 0.94 1.51 1.21 1.32 0.84 0.87 1.85 2.32 1.67 1.11 0.82 0.82 0.45 0.35 0.35 0.40 0.36 0.24 0.19 0.19 0.16 0.30 0.53 0.55 0.36 0.15 0.06 0.06 0.08
0.46 0.50 0.63 1.03 1.29 1.04 0.99 0.84 0.66 1.11 1.95 1.68 1.66 0.94 0.73 0.47 0.32 0.27 0.28 0.35 0.49 0.50 0.43 0.28 0.22 0.27 0.55 0.37 0.20 0.10 0.10 0.09
0.31 0.54 0.83 0.94 1.07 0.97 1.01 0.82 0.68 1.01 1.54 1.54 1.59 1.51 0.60 0.52 0.36 0.21 0.20 0.39 0.61 0.72 0.54 0.25 0.22 0.19 0.25 0.15 0.04 0.05 0.07 0.06
0.51 0.82 1.19 1.41 1.29 1.19 1.58 1.37 1.08 0.99 1.37 1.39 1.07 1.56 0.89 0.38 0.38 0.28 0.26 0.22 0.34 0.57 0.63 0.51 0.33 0.18 0.20 0.17 0.06 0.03 0.06 0.07
0.68 1.07 1.36 1.46 2.16 2.03 1.81 1.12 0.92 0.86 1.15 1.15 0.99 1.18 1.31 0.82 0.56 0.42 0.37 0.41 0.37 0.33 0.40 0.43 0.51 0.36 0.30 0.30 0.14 0.09 0.11 0.11
0.81 1.22 1.53 1.22 0.84 0.67 0.93 0.85 0.80 0.91 1.02 0.99 0.78 0.91 0.99 1.26 0.84 0.54 0.40 0.45 0.50 0.54 0.40 0.25 0.27 0.34 0.45 0.39 0.26 0.09 0.08 0.12
0.41 0.37 0.54 0.23 0.16 0.25 0.56 0.64 0.75 0.87 1.09 0.85 0.71 0.87 0.76 0.91 0.91 0.82 0.49 0.56 0.55 0.65 0.67 0.46 0.23 0.39 0.33 0.20 0.21 0.25 0.10 0.03
0.06 0.06 0.27 0.23 0.13 0.24 0.50 0.84 1.02 1.19 1.44 1.29 0.90 1.04 1.00 0.90 0.88 0.93 0.69 0.66 0.72 0.67 0.68 0.50 0.32 0.31 0.25 0.11 0.08 0.14 0.09 0.05
0.02 0.07 0.14 0.20 0.26 0.33 0.43 0.68 0.73 0.84 0.89 1.14 0.95 0.91 1.02 1.00 0.91 1.14 1.10 0.90 0.69 0.59 0.69 0.59 0.42 0.25 0.29 0.10 0.03 0.05 0.07 0.08
0.10 0.13 0.16 0.15 0.23 0.41 0.35 0.47 0.63 0.75 0.90 1.17 1.32 0.97 0.78 0.77 0.80 1.02 1.12 0.90 0.78 0.64 0.61 0.63 0.40 0.23 0.16 0.14 0.05 0.02 0.03 0.08
0.16 0.16 0.18 0.21 0.29 0.38 0.41 0.36 0.35 0.37 0.66 1.02 1.68 1.67 1.09 0.81 0.75 0.75 0.84 0.87 0.76 0.78 0.83 0.67 0.68 0.52 0.31 0.21 0.13 0.13 0.11 0.16
0.22 0.21 0.22 0.31 0.37 0.43 0.43 0.48 0.38 0.35 0.33 0.47 0.92 1.94 2.00 1.43 0.97 0.81 0.87 0.95 0.87 0.84 0.91 0.90 0.76 0.79 0.65 0.63 0.59 0.52 0.50 0.53
0.32 0.23 0.20 0.23 0.27 0.36 0.35 0.31 0.29 0.22 0.30 0.31 0.31 0.54 1.17 1.30 1.13 0.85 0.92 1.13 1.10 1.09 1.12 1.22 1.33 1.51 1.55 1.39 1.18 0.97 0.79 0.62